Regional Weather Roundup
Issued by NWS

Home | Current Version | Previous Version | Graphics & Text | Print | Product List | Glossary On
Versions: 1 2 3 4 5 6 7 8 9 10 11 12 13 14 15 16 17 18 19 20 21 22 23 24 25 26 27 28 29 30 31 32 33 34 35 36 37 38 39 40 41 42 43 44 45 46 47 48 49 50
000
ASUS43 KBIS 120610
RWRND

NORTH DAKOTA REGIONAL WEATHER ROUNDUP
NATIONAL WEATHER SERVICE BISMARCK ND
1200 AM CST TUE DEC 12 2017

NOTE: "FAIR" INDICATES FEW OR NO CLOUDS BELOW 12,000 FEET WITH NO
SIGNIFICANT WEATHER AND/OR OBSTRUCTIONS TO VISIBILITY.


NDZ001>003-009>011-017-120700-
NORTHWEST NORTH DAKOTA

CITY           SKY/WX    TMP DP  RH WIND       PRES   REMARKS
WILLISTON      CLEAR     25  21  86 W3        30.28F
MINOT          CLOUDY    29  25  85 SW9       30.23F
MINOT AFB      CLOUDY    30  26  87 W9        30.22F
$$

NDZ018>021-031>035-040>046-120700-
SOUTHWEST NORTH DAKOTA

CITY           SKY/WX    TMP DP  RH WIND       PRES   REMARKS
BISMARCK       CLOUDY    21  19  92 CALM      30.30F
6HR MIN TEMP:  17; 6HR MAX TEMP:  28;

DICKINSON      CLOUDY    26  24  92 W10       30.27F WCI  16
GARRISON         N/A     30  28  92 NW8       30.26F
6HR MIN TEMP:  20; 6HR MAX TEMP:  30;

HETTINGER ARPT CLOUDY    22  19  89 NW5       30.33S WCI  16
$$

NDZ004>008-012>016-024-026-027-054-120700-
NORTHEAST NORTH DAKOTA

CITY           SKY/WX    TMP DP  RH WIND       PRES   REMARKS
GRAND FORKS    CLOUDY     7   4  87 SW8       30.30F WCI  -6
GRND FRKS AFB  CLOUDY    12   7  79 SW5       30.29F WCI   4
DEVILS LAKE    CLOUDY    18  15  88 SW10      30.24F WCI   6
$$

NDZ022-023-025-028>030-036>039-047>053-120700-
SOUTHEAST NORTH DAKOTA

CITY           SKY/WX    TMP DP  RH WIND       PRES   REMARKS
FARGO          CLOUDY     5   1  83 W5        30.32F WCI  -4
6HR MIN TEMP:   5; 6HR MAX TEMP:  14;

JAMESTOWN      CLOUDY    14  11  87 W5        30.27F WCI   6
$$





USA.gov is the U.S. government's official web portal to all federal, state and local government web resources and services.